DECAYED

FENGYUN 1C DEB, 35221 (Decayed)

Orbit data source: Space-Track

FENGYUN 1C DEB, 35221 was space debris in SSO originally from a launch on Mon, 10 May 1999 UTC launched from the Taiyaun Space Center, China (TSC). Fengyun 1C debris stems from the Chinese weather satellite Fengyun-1C, which was intentionally destroyed by a Chinese anti-satellite missile in 2007. This event dramatically increased the amount of space debris, with thousands of trackable fragments posing hazards to satellites and human spaceflight. The Fengyun 1C debris cloud has become a focal point in discussions about space sustainability and the need for international regulations to prevent the creation of new debris.

Not visible in the next 10 days
Identifier
35221, 1999-025DQD
Orbit
Decayed
Country
Flag of CNCN / PRC
Related business
Manufacturer
Unknown
Mission
Decayed spacecraft
Bus & Motor
Unknown
Mass
Unknown
Launch date (UTC)
1999-05-10 (27 years ago)
Launch vehicle
Unknown
Launch site
Taiyaun Space Center, China (TSC)
Object type
Payload
Rocket body
Debris
Shape & HBR
Unknown shape, 0.1 m
Radar Cross Section
Small (<0.1 m²)

Expand to show TLE details & history
Last TLE update: 2 months ago

TLE from 2 months ago
0 FENGYUN 1C DEB
1 35221U 99025DQD 26207.32657794  .01876082  00000-0  13351-1 0  9994
2 35221  98.3987  54.9247 0008158 241.6736 118.3701 15.71002628684697
Epoch: 2026-07-26T07:50Z
TLE epoch observation values (Epoch: 2026-07-26T07:50:16.334Z)
Latitude
-0.00001°
Longitude
-6.66947°
Altitude
361.773 km
Speed
7.691 km/s
True Right ascension
03h 39m 41s
True Declination
0° 00' 00"
Sunlit
Object was in daylight at epoch
Visualization orbit readout
Latitude
Unknown
Longitude
Unknown
Altitude
Unknown
Speed
Unknown
Apparent Right ascension
Unknown
Apparent Declination
Unknown
Sunlit
N/A
Visualization observer readout
Local Sidereal Time
05:38:35
Azimuth
Unknown
Elevation
Unknown
Doppler factor
Unknown
Orbital elements
Apogee altitude
358.466 km
Perigee altitude
347.483 km
Semi-major axis
6,731.112 km
Eccentricity
0.00082
Inclination
98.3987°
RAAN
54.9247°
Arg. of periapsis
241.6736°
True anomaly
118.45232°
Mean anomaly
118.3701°
Eccentric anomaly
118.41121°
Mean motion
3.93018 °/min
Orbital period
91.6 mins
BSTAR
0.013351
Loading maneuver chart data...
Computing Atmospheric mass density...
Loading historical data...
Loading historical data...
Loading historical data...
Loading historical data...
Loading historical data...
Loading historical data...
Loading historical data...

Documentation

Showing up to 5 results
|